Location: Buisson
(44.2787°N, 4.9969°E)
Time: 02:37:31
(UTC+00:00)

SL-8 Rocket - Pass Details

Date: 18 April 2021
Orbit: 958 x 990 km, 82.9° (Epoch: 08 May)

Event Time Altitude Azimuth Distance (km) Brightness Sun altitude
Rises 00:50:48 0° 354° (N) 3,690 7.9 -32.5°
Reaches altitude 10° 00:53:21 10° 358° (N) 2,742 7.1 -32.4°
Maximum altitude 00:59:36 63° 79° (E) 1,097 4.2 -32.0°
Enters shadow 00:59:38 63° 81° (E) 1,097 4.2 -31.9°
